"startDT [UTC]","vpos","CH4 [ppm]","stdev(CH4) [ppm]","CO2 [ppm]","stdev(CO2) [ppm]","H2O [ppm]","stdev(H2O)","p_LGR [torr]","T_LGR [C]","mt1_LGR [us]","mt2_LGR [us]","T_ECpre [C]","T_EC1 [C]","T_EC2 [C]","p_inlet [hPa]","p_in [hPa]","p_out [hPa]","T_inlet [C]","RH_inlet [%]","dwpt_inlet [C]","T_vent [C]","RH_vent [%]","dwpt_vent [C]","flow_vent [l min-1]","flow_inlet [l min-1]","dwpt_sample [C]","T_room [C]"
2012-03-11 00:00:00,0.0,1.9219,0.0010,403.16,0.26,-1.0,0.0,138.18,25.83,24.58,36.24,0.04,-272.74,-272.74,-47,552,-933,19.0,1.7,-33.1,19.4,1.7,-32.6,5.73,2.31,-32.8,25.0
2012-03-11 00:01:00,0.0,1.9218,0.0008,403.13,0.33,-1.0,0.0,138.18,25.83,24.58,36.24,0.04,-272.73,-272.74,-46,552,-933,19.0,1.7,-33.1,19.4,1.7,-32.7,5.73,2.51,-32.8,24.9
2012-03-11 00:02:00,0.0,1.9212,0.0010,402.91,0.28,-1.0,0.0,138.18,25.82,24.58,36.24,0.04,-272.73,-272.73,-47,552,-933,19.0,1.7,-33.1,19.4,1.7,-32.7,5.73,2.34,-32.8,25.0
2012-03-11 00:03:00,0.0,1.9205,0.0011,403.13,0.33,-1.0,0.0,138.18,25.82,24.58,36.24,0.04,-272.74,-272.73,-46,552,-933,19.0,1.7,-33.2,19.4,1.7,-32.8,5.73,2.48,-32.8,25.0
2012-03-11 00:04:00,0.0,1.9208,0.0010,403.08,0.33,-0.9,1.0,138.18,25.82,24.58,36.24,0.04,-272.73,-272.73,-47,552,-933,19.0,1.7,-33.2,19.4,1.7,-32.8,5.73,2.38,-32.8,25.0
2012-03-11 00:05:00,0.0,1.9213,0.0010,403.14,0.31,-1.0,0.0,138.18,25.82,24.58,36.24,0.04,-272.73,-272.73,-47,553,-933,19.0,1.7,-33.2,19.4,1.7,-32.7,5.73,2.44,-32.8,24.9
2012-03-11 00:06:00,0.0,1.9215,0.0011,403.36,0.27,-1.0,0.0,138.18,25.82,24.58,36.24,0.04,-272.73,-272.73,-46,552,-933,19.0,1.8,-32.7,19.4,1.8,-32.3,5.73,2.43,-32.7,24.9
2012-03-11 00:07:00,0.0,1.9217,0.0010,403.21,0.30,-1.0,0.0,138.18,25.81,24.58,36.24,0.04,-272.73,-272.73,-47,552,-933,19.0,1.7,-32.9,19.4,1.8,-32.6,5.73,2.39,-32.7,24.9
2012-03-11 00:08:00,0.0,1.9218,0.0009,402.85,0.26,-1.0,0.0,138.18,25.81,24.58,36.24,0.04,-272.73,-272.73,-46,552,-933,19.0,1.7,-33.0,19.4,1.7,-32.6,5.73,2.47,-32.7,25.0
2012-03-11 00:09:00,0.0,1.9218,0.0011,402.80,0.32,-1.0,0.0,138.18,25.81,24.58,36.24,0.04,-272.73,-272.73,-47,552,-933,19.0,1.7,-33.0,19.4,1.7,-32.6,5.73,2.35,-32.7,25.0
2012-03-11 00:10:00,0.0,1.9221,0.0009,402.83,0.29,-1.0,0.0,138.18,25.81,24.58,36.24,0.04,-272.73,-272.74,-46,552,-932,19.0,1.7,-33.0,19.4,1.7,-32.6,5.73,2.51,-32.7,24.9
2012-03-11 00:11:00,0.0,1.9221,0.0010,402.76,0.25,-1.0,0.0,138.18,25.80,24.58,36.24,0.04,-272.74,-272.73,-47,552,-933,19.0,1.7,-33.0,19.4,1.8,-32.6,5.73,2.31,-32.7,24.9
2012-03-11 00:12:00,0.0,1.9229,0.0009,402.68,0.25,-1.0,0.0,138.18,25.80,24.58,36.24,0.04,-272.73,-272.73,-47,552,-933,19.0,1.7,-33.0,19.4,1.7,-32.6,5.73,2.54,-32.7,24.9
2012-03-11 00:13:00,0.0,1.9231,0.0011,402.82,0.28,-1.0,0.0,138.18,25.79,24.58,36.23,0.04,-272.73,-272.73,-46,553,-933,19.0,1.7,-33.0,19.4,1.7,-32.6,5.73,2.30,-32.7,24.9
2012-03-11 00:14:00,0.0,1.9233,0.0010,402.89,0.22,-1.0,0.0,138.18,25.78,24.58,36.24,0.04,-272.73,-272.73,-47,552,-932,19.0,1.7,-33.0,19.4,1.7,-32.6,5.73,2.55,-32.7,24.9
2012-03-11 00:15:00,0.0,1.9224,0.0011,403.08,0.33,-1.0,0.0,138.18,25.78,24.58,36.24,0.04,-272.73,-272.73,-46,553,-933,19.0,1.7,-33.0,19.4,1.7,-32.6,5.73,2.30,-32.7,24.9
2012-03-11 00:16:00,0.0,1.9223,0.0011,402.95,0.31,-1.0,0.0,138.18,25.78,24.58,36.24,0.04,-272.73,-272.73,-47,552,-932,19.0,1.8,-32.7,19.4,1.8,-32.3,5.73,2.54,-32.7,24.9
2012-03-11 00:17:00,0.0,1.9226,0.0010,402.71,0.26,-1.0,0.0,138.18,25.77,24.58,36.24,0.04,-272.73,-272.73,-47,552,-933,19.0,1.8,-32.8,19.4,1.8,-32.4,5.73,2.31,-32.7,24.9
2012-03-11 00:18:00,0.0,1.9226,0.0010,402.79,0.26,-1.0,0.0,138.18,25.77,24.58,36.24,0.04,-272.73,-272.74,-46,552,-933,19.0,1.8,-32.8,19.4,1.8,-32.5,5.73,2.52,-32.7,25.0
2012-03-11 00:19:00,0.0,1.9229,0.0009,402.69,0.30,-1.0,0.0,138.18,25.76,24.58,36.24,0.04,-272.73,-272.73,-47,552,-933,19.0,1.7,-32.9,19.4,1.8,-32.4,5.73,2.35,-32.7,24.9
2012-03-11 00:20:00,0.0,1.9227,0.0009,402.71,0.29,-1.0,0.0,138.18,25.76,24.58,36.24,0.04,-272.73,-272.73,-46,552,-933,19.0,1.7,-32.8,19.4,1.8,-32.5,5.73,2.48,-32.7,24.9
2012-03-11 00:21:00,0.0,1.9233,0.0011,402.70,0.27,-1.0,0.0,138.18,25.75,24.58,36.24,0.04,-272.73,-272.74,-47,552,-933,19.0,1.7,-33.0,19.4,1.8,-32.5,5.73,2.38,-32.7,24.9
2012-03-11 00:22:00,0.0,1.9233,0.0011,402.67,0.26,-1.0,0.0,138.18,25.74,24.58,36.24,0.04,-272.73,-272.73,-46,552,-933,19.0,1.7,-33.0,19.4,1.7,-32.6,5.73,2.45,-32.7,24.9
2012-03-11 00:23:00,0.0,1.9236,0.0009,402.73,0.27,-1.0,0.0,138.18,25.74,24.58,36.25,0.04,-272.73,-272.73,-47,552,-933,19.0,1.7,-32.9,19.4,1.8,-32.5,5.73,2.41,-32.6,24.9
2012-03-11 00:24:00,0.0,1.9238,0.0010,402.80,0.26,-1.0,0.0,138.18,25.73,24.58,36.24,0.04,-272.74,-272.73,-47,552,-933,19.0,1.7,-33.0,19.4,1.8,-32.5,5.73,2.42,-32.6,24.9
2012-03-11 00:25:00,0.0,1.9240,0.0010,403.01,0.25,-1.0,0.0,138.18,25.73,24.58,36.23,0.04,-272.73,-272.73,-46,553,-933,19.0,1.7,-33.0,19.4,1.8,-32.5,5.73,2.45,-32.6,24.9
2012-03-11 00:26:00,0.0,1.9228,0.0010,402.87,0.24,-1.0,0.0,138.18,25.72,24.58,36.24,0.04,-272.73,-272.73,-47,552,-933,19.0,1.7,-32.9,19.4,1.8,-32.4,5.73,2.36,-32.6,24.9
2012-03-11 00:27:00,0.0,1.9230,0.0010,402.79,0.27,-1.0,0.0,138.18,25.72,24.58,36.24,0.04,-272.73,-272.74,-46,552,-932,19.0,1.7,-32.9,19.3,1.8,-32.5,5.73,2.50,-32.6,24.9
2012-03-11 00:28:00,0.0,1.9230,0.0009,402.88,0.28,-1.0,0.0,138.18,25.72,24.58,36.24,0.04,-272.73,-272.73,-47,552,-933,18.9,1.7,-32.9,19.4,1.8,-32.5,5.73,2.33,-32.6,24.9
2012-03-11 00:29:00,0.0,1.9228,0.0011,402.80,0.25,-1.0,0.0,138.18,25.72,24.58,36.23,0.04,-272.73,-272.73,-47,552,-933,19.0,1.7,-33.0,19.4,1.8,-32.5,5.73,2.52,-32.6,24.9
2012-03-11 00:30:00,0.0,1.9225,0.0010,402.83,0.25,-1.0,0.0,138.18,25.72,24.58,36.23,0.04,-272.73,-272.73,-46,553,-932,19.0,1.7,-33.0,19.4,1.7,-32.6,5.73,2.31,-32.6,24.9
2012-03-11 00:31:00,0.0,1.9225,0.0009,402.92,0.26,-1.0,0.0,138.18,25.72,24.59,36.24,0.04,-272.73,-272.73,-47,552,-933,19.0,1.7,-33.0,19.3,1.7,-32.7,5.73,2.54,-32.6,24.9
2012-03-11 00:32:00,0.0,1.9228,0.0010,402.93,0.26,-1.0,0.0,138.18,25.72,24.58,36.23,0.04,-272.73,-272.73,-46,552,-933,19.0,1.7,-33.0,19.4,1.8,-32.6,5.73,2.30,-32.6,24.9
2012-03-11 00:33:00,0.0,1.9231,0.0011,403.00,0.23,-1.0,0.0,138.18,25.72,24.58,36.24,0.04,-272.74,-272.73,-47,552,-933,19.0,1.7,-33.0,19.4,1.7,-32.6,5.73,2.54,-32.6,24.9
2012-03-11 00:34:00,0.0,1.9236,0.0011,403.02,0.35,-1.0,0.0,138.18,25.72,24.58,36.24,0.04,-272.73,-272.74,-46,552,-933,19.0,1.7,-33.0,19.3,1.7,-32.6,5.73,2.30,-32.6,24.9
2012-03-11 00:35:00,0.0,1.9233,0.0009,403.06,0.28,-1.0,0.0,138.18,25.72,24.59,36.24,0.04,-272.73,-272.74,-47,552,-932,19.0,1.7,-32.9,19.3,1.8,-32.4,5.73,2.54,-32.6,24.9
2012-03-11 00:36:00,0.0,1.9237,0.0010,403.04,0.30,-1.0,0.0,138.18,25.72,24.58,36.24,0.04,-272.73,-272.73,-47,552,-933,19.0,1.8,-32.8,19.3,1.8,-32.5,5.73,2.31,-32.6,24.9
2012-03-11 00:37:00,0.0,1.9233,0.0010,402.80,0.28,-1.0,0.0,138.18,25.72,24.58,36.24,0.04,-272.73,-272.73,-46,553,-932,18.9,1.7,-32.9,19.3,1.8,-32.5,5.73,2.53,-32.6,24.9
2012-03-11 00:38:00,0.0,1.9233,0.0010,402.65,0.28,-1.0,0.0,138.18,25.72,24.58,36.25,0.04,-272.73,-272.74,-47,552,-932,19.0,1.8,-32.8,19.3,1.8,-32.4,5.73,2.32,-32.6,24.9
2012-03-11 00:39:00,0.0,1.9233,0.0009,402.68,0.24,-1.0,0.0,138.18,25.71,24.58,36.24,0.04,-272.73,-272.73,-46,553,-933,19.0,1.8,-32.7,19.3,1.8,-32.3,5.73,2.51,-32.6,24.9
2012-03-11 00:40:00,0.0,1.9231,0.0009,402.66,0.24,-1.0,0.0,138.18,25.71,24.58,36.24,0.04,-272.73,-272.73,-47,552,-932,19.0,1.8,-32.7,19.3,1.8,-32.3,5.73,2.34,-32.5,24.9
2012-03-11 00:41:00,0.0,1.9231,0.0009,402.74,0.28,-1.0,0.0,138.18,25.71,24.58,36.24,0.04,-272.73,-272.74,-46,553,-933,19.0,1.8,-32.7,19.3,1.8,-32.2,5.73,2.48,-32.5,24.9
2012-03-11 00:42:00,0.0,1.9233,0.0010,402.78,0.24,-1.0,0.0,138.18,25.71,24.58,36.24,0.04,-272.73,-272.73,-46,552,-933,19.0,1.8,-32.6,19.3,1.8,-32.2,5.73,2.38,-32.5,24.9
2012-03-11 00:43:00,0.0,1.9231,0.0010,402.67,0.26,-1.0,0.0,138.18,25.71,24.58,36.25,0.04,-272.73,-272.73,-47,552,-932,19.0,1.8,-32.5,19.3,1.8,-32.2,5.73,2.45,-32.5,24.9
2012-03-11 00:44:00,0.0,1.9235,0.0008,402.79,0.28,-1.0,0.0,138.18,25.70,24.58,36.24,0.04,-272.74,-272.73,-46,552,-933,19.0,1.8,-32.5,19.3,1.8,-32.1,5.73,2.39,-32.5,24.9
2012-03-11 00:45:00,0.0,1.9237,0.0010,402.77,0.32,-1.0,0.0,138.18,25.70,24.58,36.24,0.04,-272.73,-272.73,-47,552,-932,19.0,1.8,-32.4,19.3,1.9,-32.0,5.73,2.44,-32.4,24.9
2012-03-11 00:46:00,0.0,1.9235,0.0008,402.80,0.25,-0.6,2.2,138.18,25.70,24.58,36.24,0.04,-272.73,-272.73,-46,552,-932,19.0,1.8,-32.4,19.3,1.9,-32.0,5.73,2.42,-32.4,24.9
2012-03-11 00:47:00,0.0,1.9244,0.0011,402.78,0.27,-1.0,0.0,138.18,25.70,24.58,36.24,0.04,-272.73,-272.73,-47,552,-932,19.0,1.8,-32.4,19.4,1.9,-32.0,5.73,2.41,-32.5,24.9
2012-03-11 00:48:00,0.0,1.9242,0.0010,402.93,0.29,-1.0,0.0,138.18,25.69,24.58,36.23,0.04,-272.73,-272.74,-46,552,-932,19.0,1.8,-32.4,19.3,1.9,-32.0,5.73,2.44,-32.4,24.9
2012-03-11 00:49:00,0.0,1.9241,0.0009,402.84,0.29,-1.0,0.0,138.18,25.68,24.58,36.24,0.04,-272.73,-272.73,-46,552,-933,19.0,1.8,-32.4,19.3,1.9,-31.9,5.73,2.40,-32.4,24.9
2012-03-11 00:50:00,0.0,1.9237,0.0009,402.77,0.28,-1.0,0.0,138.18,25.68,24.58,36.24,0.04,-272.73,-272.73,-47,552,-932,19.0,1.8,-32.4,19.3,1.9,-32.0,5.73,2.45,-32.4,24.9
2012-03-11 00:51:00,0.0,1.9238,0.0009,402.87,0.24,-1.0,0.0,138.18,25.68,24.58,36.23,0.04,-272.73,-272.73,-46,552,-932,19.0,1.8,-32.3,19.3,1.9,-31.8,5.73,2.38,-32.4,24.9
2012-03-11 00:52:00,0.0,1.9237,0.0010,402.88,0.31,-0.7,2.3,138.18,25.68,24.58,36.24,0.04,-272.73,-272.73,-47,552,-932,19.0,1.9,-32.2,19.3,1.9,-31.9,5.73,2.47,-32.4,24.9
2012-03-11 00:53:00,0.0,1.9239,0.0009,402.85,0.25,-1.0,0.2,138.18,25.67,24.58,36.24,0.04,-272.73,-272.73,-46,552,-932,19.0,1.8,-32.3,19.3,1.9,-31.9,5.73,2.37,-32.4,24.8
2012-03-11 00:54:00,0.0,1.9244,0.0010,402.87,0.28,-1.0,0.0,138.18,25.67,24.58,36.23,0.04,-272.73,-272.73,-47,552,-932,19.0,1.9,-32.3,19.3,1.9,-31.8,5.73,2.49,-32.4,24.9
2012-03-11 00:55:00,0.0,1.9239,0.0010,402.83,0.24,-1.0,0.0,138.18,25.67,24.58,36.24,0.04,-272.74,-272.73,-46,552,-932,19.0,1.9,-32.2,19.3,1.9,-31.9,5.73,2.34,-32.4,24.9
2012-03-11 00:56:00,0.0,1.9243,0.0010,402.87,0.28,-1.0,0.0,138.18,25.67,24.58,36.24,0.04,-272.73,-272.73,-46,552,-933,19.0,1.9,-32.2,19.3,1.9,-31.8,5.73,2.51,-32.4,24.9
2012-03-11 00:57:00,0.0,1.9240,0.0008,402.75,0.31,-1.0,0.0,138.18,25.66,24.58,36.24,0.04,-272.73,-272.73,-47,552,-932,19.0,1.9,-32.2,19.3,1.9,-31.9,5.73,2.32,-32.4,24.8
2012-03-11 00:58:00,0.0,1.9230,0.0010,402.79,0.25,-1.0,0.0,138.18,25.66,24.58,36.24,0.04,-272.74,-272.73,-46,553,-933,19.0,1.9,-32.2,19.3,1.9,-31.9,5.73,2.53,-32.3,24.9
2012-03-11 00:59:00,0.0,1.9227,0.0009,402.72,0.29,-0.8,1.3,138.18,25.66,24.58,36.24,0.04,-272.73,-272.73,-47,552,-932,19.0,1.8,-32.3,19.3,1.9,-31.9,5.73,2.31,-32.4,24.9
2012-03-11 01:00:00,0.0,1.9225,0.0008,402.74,0.31,-1.0,0.0,138.18,25.66,24.58,36.24,0.04,-272.73,-272.73,-46,553,-933,19.0,1.8,-32.4,19.3,1.9,-32.0,5.73,2.53,-32.4,24.9
2012-03-11 01:01:00,0.0,1.9229,0.0009,402.77,0.22,-1.0,0.0,138.18,25.66,24.58,36.24,0.04,-272.74,-272.73,-47,552,-932,19.0,1.8,-32.4,19.3,1.9,-32.0,5.73,2.31,-32.3,24.9
2012-03-11 01:02:00,0.0,1.9225,0.0009,402.78,0.28,-1.0,0.0,138.18,25.65,24.58,36.24,0.04,-272.73,-272.73,-46,553,-932,19.0,1.8,-32.4,19.3,1.9,-32.0,5.73,2.54,-32.3,24.9
2012-03-11 01:03:00,0.0,1.9233,0.0010,402.75,0.30,-1.0,0.0,138.18,25.65,24.58,36.24,0.04,-272.73,-272.73,-46,552,-933,19.0,1.8,-32.4,19.3,1.9,-32.0,5.73,2.30,-32.3,24.9
2012-03-11 01:04:00,0.0,1.9228,0.0010,402.73,0.29,-1.0,0.0,138.18,25.65,24.58,36.24,0.04,-272.73,-272.74,-47,552,-932,19.0,1.8,-32.4,19.3,1.9,-32.0,5.73,2.54,-32.3,24.9
2012-03-11 01:05:00,0.0,1.9225,0.0010,402.66,0.23,-1.0,0.3,138.18,25.65,24.58,36.24,0.04,-272.73,-272.73,-46,552,-932,19.0,1.8,-32.4,19.3,1.9,-32.0,5.73,2.30,-32.3,24.9
2012-03-11 01:06:00,0.0,1.9233,0.0010,402.78,0.30,-1.0,0.0,138.18,25.64,24.58,36.24,0.04,-272.73,-272.73,-47,552,-933,19.0,1.8,-32.4,19.3,1.9,-32.0,5.73,2.54,-32.3,24.9
2012-03-11 01:07:00,0.0,1.9235,0.0010,402.84,0.26,-1.0,0.0,138.18,25.64,24.58,36.24,0.04,-272.73,-272.73,-46,552,-933,19.0,1.8,-32.4,19.4,1.9,-32.0,5.73,2.30,-32.3,24.9
2012-03-11 01:08:00,0.0,1.9239,0.0010,402.72,0.25,-1.0,0.0,138.18,25.63,24.58,36.24,0.04,-272.73,-272.74,-47,552,-932,19.0,1.8,-32.4,19.4,1.9,-31.9,5.73,2.54,-32.3,25.0
2012-03-11 01:09:00,0.0,1.9237,0.0009,402.80,0.28,-0.8,1.6,138.18,25.63,24.58,36.24,0.04,-272.73,-272.73,-46,553,-932,19.0,1.9,-32.2,19.4,1.9,-31.8,5.73,2.30,-32.3,24.9
2012-03-11 01:10:00,0.0,1.9244,0.0010,402.79,0.28,-1.0,0.0,138.18,25.62,24.58,36.24,0.04,-272.73,-272.73,-47,552,-933,19.0,1.9,-32.1,19.4,1.9,-31.7,5.73,2.54,-32.3,24.9
2012-03-11 01:11:00,0.0,1.9244,0.0008,402.87,0.32,-1.0,0.0,138.18,25.62,24.58,36.24,0.04,-272.73,-272.74,-46,552,-932,19.0,1.9,-32.1,19.4,1.9,-31.7,5.73,2.31,-32.3,24.9
2012-03-11 01:12:00,0.0,1.9251,0.0009,402.76,0.29,-1.0,0.0,138.18,25.62,24.58,36.24,0.04,-272.73,-272.73,-46,552,-933,19.0,1.9,-31.9,19.4,1.9,-31.5,5.73,2.54,-32.3,24.9
2012-03-11 01:13:00,0.0,1.9255,0.0012,402.85,0.31,-1.0,0.0,138.18,25.61,24.58,36.24,0.04,-272.73,-272.73,-47,552,-933,19.0,2.0,-31.7,19.4,2.0,-31.3,5.73,2.30,-32.2,24.9
2012-03-11 01:14:00,0.0,1.9252,0.0011,402.80,0.23,-1.0,0.0,138.18,25.61,24.58,36.24,0.04,-272.73,-272.73,-46,553,-932,19.0,2.0,-31.3,19.4,2.1,-30.8,5.73,2.55,-32.2,24.9
2012-03-11 01:15:00,0.0,1.9239,0.0010,402.71,0.25,-1.0,0.0,138.18,25.61,24.58,36.24,0.04,-272.73,-272.73,-47,552,-932,19.0,2.0,-31.7,19.4,2.0,-31.3,5.73,2.30,-32.2,24.9
2012-03-11 01:16:00,0.0,1.9240,0.0010,402.75,0.25,-1.0,0.0,138.18,25.61,24.58,36.24,0.04,-272.73,-272.73,-46,553,-932,19.0,1.9,-31.7,19.4,2.0,-31.4,5.73,2.54,-32.2,24.9
2012-03-11 01:17:00,0.0,1.9239,0.0009,402.69,0.28,-1.0,0.0,138.18,25.61,24.58,36.24,0.04,-272.73,-272.73,-47,552,-932,19.0,1.9,-31.8,19.4,2.0,-31.4,5.73,2.30,-32.2,24.9
2012-03-11 01:18:00,0.0,1.9234,0.0010,402.72,0.27,-0.9,0.9,138.18,25.60,24.58,36.24,0.04,-272.73,-272.74,-46,553,-933,19.0,1.9,-32.0,19.4,1.9,-31.6,5.73,2.54,-32.2,24.9
2012-03-11 01:19:00,0.0,1.9226,0.0010,402.67,0.27,-1.0,0.0,138.18,25.60,24.58,36.24,0.04,-272.73,-272.73,-47,552,-932,19.0,1.9,-32.1,19.4,1.9,-31.7,5.73,2.30,-32.2,24.9
2012-03-11 01:20:00,0.0,1.9228,0.0009,402.67,0.26,-1.0,0.0,138.18,25.60,24.58,36.24,0.04,-272.73,-272.73,-47,553,-932,19.0,1.9,-32.2,19.4,1.9,-31.7,5.73,2.54,-32.2,24.9
2012-03-11 01:21:00,0.0,1.9226,0.0010,402.74,0.27,-1.0,0.0,138.18,25.60,24.58,36.23,0.04,-272.73,-272.73,-46,553,-932,19.0,1.9,-32.2,19.4,1.9,-31.8,5.73,2.30,-32.2,24.9
2012-03-11 01:22:00,0.0,1.9229,0.0008,402.64,0.26,-1.0,0.0,138.18,25.60,24.58,36.24,0.04,-272.73,-272.73,-47,553,-932,19.0,1.9,-32.2,19.4,1.9,-31.9,5.73,2.54,-32.2,24.9
2012-03-11 01:23:00,0.0,1.9232,0.0010,402.62,0.27,-1.0,0.0,138.18,25.59,24.58,36.24,0.04,-272.73,-272.73,-46,552,-932,19.0,1.9,-32.2,19.3,1.9,-31.9,5.73,2.31,-32.2,24.9
2012-03-11 01:24:00,0.0,1.9233,0.0011,402.83,0.26,-1.0,0.0,138.18,25.59,24.58,36.23,0.04,-272.73,-272.73,-47,552,-932,19.0,1.9,-32.2,19.3,1.9,-31.8,5.73,2.54,-32.2,24.9
2012-03-11 01:25:00,0.0,1.9227,0.0009,402.65,0.23,-1.0,0.2,138.18,25.59,24.58,36.24,0.04,-272.73,-272.73,-46,553,-932,19.0,1.9,-32.2,19.3,1.9,-31.9,5.73,2.30,-32.2,24.9
2012-03-11 01:26:00,0.0,1.9224,0.0009,402.69,0.26,-1.0,0.0,138.18,25.59,24.58,36.24,0.04,-272.73,-272.73,-47,552,-932,19.0,1.9,-32.2,19.3,1.9,-31.9,5.73,2.54,-32.2,24.8
2012-03-11 01:27:00,0.0,1.9234,0.0012,402.77,0.27,-1.0,0.0,138.18,25.58,24.58,36.23,0.04,-272.73,-272.73,-46,553,-932,19.0,1.9,-32.2,19.3,1.9,-31.8,5.73,2.31,-32.2,24.8
2012-03-11 01:28:00,0.0,1.9234,0.0009,402.76,0.29,-1.0,0.0,138.18,25.58,24.58,36.24,0.04,-272.73,-272.73,-47,552,-932,18.9,1.9,-32.1,19.3,1.9,-31.7,5.73,2.53,-32.2,24.9
2012-03-11 01:29:00,0.0,1.9237,0.0011,402.69,0.29,-1.0,0.0,138.18,25.58,24.58,36.24,0.04,-272.73,-272.73,-46,552,-932,19.0,1.9,-32.1,19.3,1.9,-31.7,5.73,2.32,-32.2,24.8
2012-03-11 01:30:00,0.0,1.9243,0.0011,402.73,0.28,-1.0,0.0,138.18,25.57,24.58,36.24,0.04,-272.73,-272.73,-47,552,-932,19.0,1.9,-32.1,19.3,1.9,-31.7,5.73,2.52,-32.2,24.8
2012-03-11 01:31:00,0.0,1.9249,0.0010,402.81,0.26,-0.9,0.5,138.18,25.56,24.58,36.23,0.04,-272.73,-272.73,-47,552,-932,19.0,1.9,-32.1,19.3,1.9,-31.7,5.73,2.34,-32.2,24.9
2012-03-11 01:32:00,0.0,1.9250,0.0009,402.79,0.21,-1.0,0.0,138.18,25.56,24.58,36.24,0.04,-272.73,-272.74,-46,553,-932,19.0,1.9,-32.0,19.4,1.9,-31.5,5.73,2.49,-32.1,24.9
2012-03-11 01:33:00,0.0,1.9248,0.0009,402.71,0.26,-1.0,0.0,138.18,25.55,24.58,36.24,0.04,-272.73,-272.73,-47,552,-932,19.0,1.9,-31.9,19.4,1.9,-31.5,5.73,2.37,-32.1,24.9
2012-03-11 01:34:00,0.0,1.9240,0.0010,402.84,0.30,-0.5,2.5,138.18,25.56,24.58,36.23,0.04,-272.73,-272.73,-46,553,-932,19.0,1.9,-31.8,19.3,2.0,-31.4,5.73,2.45,-32.1,24.9
2012-03-11 01:35:00,0.0,1.9237,0.0010,402.76,0.27,-0.8,1.4,138.18,25.56,24.58,36.23,0.04,-272.73,-272.73,-47,553,-932,19.0,1.9,-31.8,19.4,2.0,-31.4,5.73,2.42,-32.1,25.0
2012-03-11 01:36:00,0.0,1.9246,0.0009,402.85,0.21,-1.0,0.0,138.18,25.56,24.58,36.23,0.04,-272.73,-272.73,-46,553,-932,19.0,1.9,-31.8,19.4,2.0,-31.4,5.73,2.40,-32.1,25.0
2012-03-11 01:37:00,0.0,1.9237,0.0014,402.77,0.26,-1.0,0.0,138.18,25.56,24.58,36.24,0.04,-272.73,-272.73,-47,553,-932,19.0,1.9,-31.8,19.4,2.0,-31.4,5.73,2.46,-32.1,24.9
2012-03-11 01:38:00,0.0,1.9240,0.0010,402.72,0.25,-1.0,0.0,138.18,25.56,24.58,36.24,0.04,-272.73,-272.73,-46,552,-932,19.0,1.9,-31.7,19.4,2.0,-31.4,5.73,2.36,-32.1,25.0
2012-03-11 01:39:00,0.0,1.9243,0.0010,402.83,0.24,-1.0,0.0,138.18,25.56,24.58,36.23,0.04,-272.73,-272.73,-47,552,-932,19.0,1.9,-31.7,19.4,2.0,-31.4,5.73,2.51,-32.1,24.9
2012-03-11 01:40:00,0.0,1.9247,0.0010,402.87,0.24,-1.0,0.0,138.18,25.56,24.58,36.23,0.04,-272.73,-272.73,-46,553,-932,19.1,1.9,-31.7,19.4,2.0,-31.3,5.73,2.32,-32.1,24.9
2012-03-11 01:41:00,0.0,1.9241,0.0008,402.88,0.24,-1.0,0.0,138.18,25.56,24.58,36.24,0.04,-272.73,-272.73,-47,552,-932,19.0,2.0,-31.6,19.4,2.0,-31.2,5.73,2.53,-32.1,24.9
2012-03-11 01:42:00,0.0,1.9246,0.0010,402.85,0.30,-1.0,0.0,138.18,25.56,24.58,36.24,0.04,-272.73,-272.73,-46,553,-932,19.1,2.0,-31.6,19.4,2.0,-31.2,5.73,2.31,-32.1,25.0
2012-03-11 01:43:00,0.0,1.9251,0.0011,402.85,0.25,-1.0,0.0,138.18,25.56,24.58,36.24,0.04,-272.73,-272.73,-47,553,-932,19.1,2.0,-31.5,19.4,2.0,-31.1,5.73,2.54,-32.0,25.0
2012-03-11 01:44:00,0.0,1.9255,0.0009,402.76,0.26,-0.9,0.6,138.18,25.56,24.58,36.24,0.04,-272.73,-272.73,-46,553,-932,19.1,2.0,-31.4,19.4,2.0,-31.0,5.73,2.31,-32.0,25.1
2012-03-11 01:45:00,0.0,1.9248,0.0011,402.87,0.25,-1.0,0.2,138.18,25.56,24.58,36.24,0.04,-272.73,-272.73,-47,553,-932,19.1,2.0,-31.4,19.4,2.0,-30.9,5.73,2.52,-32.0,25.0
2012-03-11 01:46:00,0.0,1.9247,0.0009,402.86,0.24,-1.0,0.0,138.18,25.56,24.58,36.23,0.04,-272.73,-272.73,-46,553,-932,19.1,2.0,-31.4,19.4,2.0,-31.0,5.73,2.34,-32.0,25.0
2012-03-11 01:47:00,0.0,1.9251,0.0010,402.92,0.27,-1.0,0.0,138.18,25.56,24.58,36.23,0.04,-272.73,-272.73,-47,553,-932,19.1,2.0,-31.4,19.4,2.0,-30.9,5.73,2.48,-32.0,25.0
2012-03-11 01:48:00,0.0,1.9254,0.0009,402.87,0.29,-1.0,0.0,138.18,25.56,24.58,36.24,0.04,-272.73,-272.73,-46,553,-932,19.1,2.0,-31.3,19.5,2.1,-30.9,5.73,2.38,-32.0,25.1
2012-03-11 01:49:00,0.0,1.9257,0.0011,402.92,0.20,-1.0,0.0,138.18,25.56,24.58,36.24,0.04,-272.73,-272.73,-47,553,-932,19.1,2.0,-31.3,19.5,2.0,-30.9,5.73,2.43,-32.0,25.1
2012-03-11 01:50:00,0.0,1.9261,0.0010,402.96,0.27,-1.0,0.0,138.18,25.56,24.58,36.24,0.04,-272.73,-272.73,-46,553,-932,19.2,2.0,-31.2,19.5,2.1,-30.8,5.73,2.44,-32.0,25.1
2012-03-11 01:51:00,0.0,1.9261,0.0010,402.93,0.32,-0.8,1.3,138.18,25.56,24.58,36.24,0.04,-272.73,-272.73,-47,553,-932,19.2,2.0,-31.1,19.5,2.1,-30.7,5.73,2.36,-31.9,25.1
2012-03-11 01:52:00,0.0,1.9255,0.0011,402.85,0.29,-1.0,0.0,138.18,25.56,24.58,36.24,0.04,-272.73,-272.73,-46,553,-932,19.2,2.0,-31.1,19.5,2.1,-30.8,5.73,2.51,-31.9,25.1
2012-03-11 01:53:00,0.0,1.9254,0.0010,402.92,0.23,-0.4,5.0,138.18,25.56,24.58,36.24,0.04,-272.73,-272.73,-47,553,-932,19.2,2.0,-31.1,19.5,2.1,-30.7,5.73,2.31,-31.9,25.1
2012-03-11 01:54:00,0.0,1.9254,0.0009,402.84,0.26,-1.0,0.0,138.18,25.56,24.58,36.24,0.04,-272.73,-272.73,-46,553,-932,19.2,2.0,-31.2,19.5,2.1,-30.9,5.73,2.54,-31.9,25.1
2012-03-11 01:55:00,0.0,1.9251,0.0010,402.77,0.25,-0.7,2.0,138.18,25.56,24.58,36.24,0.04,-272.73,-272.73,-47,553,-932,19.2,2.0,-31.2,19.5,2.1,-30.8,5.73,2.32,-31.9,25.1
2012-03-11 01:56:00,0.0,1.9248,0.0009,402.93,0.24,-0.6,2.4,138.18,25.56,24.58,36.24,0.04,-272.73,-272.73,-46,553,-932,19.2,2.0,-31.4,19.5,2.0,-30.9,5.73,2.49,-31.8,25.1
2012-03-11 01:57:00,0.0,1.9250,0.0013,402.88,0.30,-0.5,3.9,138.18,25.56,24.58,36.24,0.04,-272.73,-272.73,-47,553,-932,19.2,2.0,-31.3,19.5,2.1,-30.9,5.73,2.37,-31.9,25.1
2012-03-11 01:58:00,0.0,1.9252,0.0011,402.89,0.28,-1.0,0.0,138.18,25.56,24.58,36.24,0.04,-272.73,-272.73,-46,553,-932,19.2,2.0,-31.4,19.5,2.0,-30.9,5.73,2.42,-31.8,25.1
2012-03-11 01:59:00,0.0,1.9259,0.0009,402.93,0.26,-0.8,1.4,138.18,25.57,24.58,36.23,0.04,-272.73,-272.73,-47,553,-932,19.2,2.0,-31.3,19.5,2.1,-30.8,5.73,2.46,-31.8,25.2
2012-03-11 02:00:00,0.0,1.9257,0.0011,402.99,0.30,-1.0,0.0,138.18,25.57,24.58,36.24,0.04,-272.73,-272.73,-46,554,-932,19.3,2.0,-31.3,19.5,2.0,-30.9,5.73,2.33,-31.8,25.2
2012-03-11 02:01:00,0.0,1.9258,0.0010,403.20,0.27,-0.6,2.4,138.18,25.57,24.58,36.24,0.04,-272.73,-272.73,-47,553,-932,19.2,2.0,-31.3,19.6,2.0,-30.8,5.73,2.52,-31.8,25.2
2012-03-11 02:02:00,0.0,1.9256,0.0009,403.37,0.26,-1.0,0.0,138.18,25.57,24.58,36.24,0.04,-272.74,-272.73,-46,554,-932,19.3,2.0,-31.3,19.6,2.0,-30.8,5.73,2.30,-31.8,25.2
2012-03-11 02:03:00,0.0,1.9265,0.0009,403.08,0.28,-1.0,0.0,138.18,25.58,24.58,36.24,0.04,-272.73,-272.73,-47,554,-932,19.3,2.0,-31.3,19.6,2.1,-30.7,5.73,2.53,-31.7,25.1
2012-03-11 02:04:00,0.0,1.9269,0.0010,402.96,0.29,-1.0,0.0,138.18,25.58,24.58,36.24,0.04,-272.73,-272.73,-46,554,-932,19.3,2.0,-31.3,19.6,2.1,-30.7,5.73,2.33,-31.7,25.2
2012-03-11 02:05:00,0.0,1.9266,0.0010,402.90,0.30,-0.9,0.7,138.18,25.59,24.58,36.25,0.04,-272.73,-272.73,-47,554,-932,19.3,2.0,-31.3,19.6,2.1,-30.7,5.73,2.47,-31.7,25.3
2012-03-11 02:06:00,0.0,1.9265,0.0010,402.98,0.30,-0.9,1.1,138.18,25.59,24.58,36.24,0.04,-272.73,-272.73,-46,554,-932,19.3,2.0,-31.3,19.6,2.1,-30.6,5.73,2.42,-31.7,25.3
2012-03-11 02:07:00,0.0,1.9275,0.0009,403.05,0.25,-1.0,0.0,138.18,25.60,24.58,36.24,0.04,-272.73,-272.73,-47,554,-932,19.3,2.0,-31.1,19.6,2.1,-30.6,5.73,2.38,-31.7,25.3
2012-03-11 02:08:00,0.0,1.9272,0.0011,403.13,0.25,-0.6,3.3,138.18,25.60,24.58,36.24,0.04,-272.73,-272.73,-46,554,-932,19.3,2.1,-30.9,19.6,2.1,-30.4,5.73,2.49,-31.7,25.4
2012-03-11 02:09:00,0.0,1.9270,0.0010,403.20,0.31,-0.6,3.0,138.17,25.60,24.58,36.24,0.04,-272.73,-272.73,-47,554,-932,19.3,2.1,-31.0,19.7,2.1,-30.5,5.73,2.32,-31.7,25.4
2012-03-11 02:10:00,0.0,1.9269,0.0012,403.10,0.29,-0.9,0.6,138.17,25.61,24.58,36.24,0.04,-272.73,-272.73,-46,554,-932,19.4,2.0,-31.1,19.7,2.1,-30.6,5.73,2.53,-31.6,25.4
2012-03-11 02:11:00,0.0,1.9270,0.0010,403.12,0.26,-1.0,0.1,138.17,25.61,24.58,36.24,0.04,-272.73,-272.73,-47,554,-932,19.4,2.0,-31.1,19.7,2.1,-30.6,5.73,2.30,-31.6,25.4
2012-03-11 02:12:00,0.0,1.9274,0.0011,403.10,0.25,-1.0,0.0,138.17,25.62,24.58,36.24,0.04,-272.74,-272.73,-46,554,-932,19.4,2.0,-31.1,19.7,2.1,-30.7,5.73,2.51,-31.6,25.3
2012-03-11 02:13:00,0.0,1.9278,0.0009,403.13,0.29,-0.8,1.8,138.17,25.62,24.58,36.24,0.04,-272.73,-272.73,-47,554,-932,19.4,2.0,-31.1,19.7,2.1,-30.6,5.73,2.36,-31.6,25.4
2012-03-11 02:14:00,0.0,1.9277,0.0010,403.20,0.31,-1.0,0.0,138.17,25.63,24.58,36.24,0.04,-272.73,-272.73,-46,554,-932,19.4,2.0,-31.0,19.7,2.1,-30.6,5.73,2.43,-31.6,25.4
2012-03-11 02:15:00,0.0,1.9273,0.0014,403.17,0.27,-1.0,0.0,138.17,25.63,24.58,36.24,0.04,-272.73,-272.73,-47,554,-933,19.4,2.0,-31.1,19.7,2.1,-30.6,5.73,2.45,-31.6,25.4
2012-03-11 02:16:00,0.0,1.9279,0.0010,403.40,0.25,-1.0,0.3,138.17,25.64,24.58,36.23,0.04,-272.73,-272.73,-46,554,-932,19.4,2.1,-30.9,19.7,2.1,-30.5,5.73,2.35,-31.6,25.4
2012-03-11 02:17:00,0.0,1.9283,0.0010,403.32,0.27,-0.4,4.8,138.17,25.65,24.58,36.24,0.04,-272.73,-272.73,-47,554,-932,19.4,2.1,-30.9,19.7,2.1,-30.5,5.73,2.52,-31.5,25.5
2012-03-11 02:18:00,0.0,1.9285,0.0010,403.34,0.27,-0.4,3.7,138.17,25.65,24.58,36.24,0.04,-272.73,-272.73,-46,554,-932,19.4,2.1,-30.9,19.7,2.1,-30.5,5.73,2.30,-31.5,25.5